Regional Weather Roundup
Issued by NWS

Home | Current Version | Previous Version | Graphics & Text | Print | Product List | Glossary On
Versions: 1 2 3 4 5 6 7 8 9 10 11 12 13 14 15 16 17 18 19 20 21 22 23 24 25 26 27 28 29 30 31 32 33 34 35 36 37 38 39 40 41 42 43 44 45 46 47 48 49 50
000
ASUS43 KLSX 310407
RWRMO

WEATHER SUMMARY FOR MISSOURI
NATIONAL WEATHER SERVICE SPRINGFIELD MO
1100 PM CDT MON MAY 30 2016

NOTE: "FAIR" INDICATES FEW OR NO CLOUDS BELOW 12,000 FEET WITH NO
       SIGNIFICANT WEATHER AND/OR OBSTRUCTIONS TO VISIBILITY.
       CURRENT SKY AND/OR WEATHER CONDITIONS ARE NOT AVAILABLE FOR
       CHILLICOTHE AND FARMINGTON.

MOZ001>031-035>038-043-044-053-054-310500-
...NORTHERN AND WESTERN MISSOURI...

CITY           SKY/WX    TMP DP  RH WIND       PRES   REMARKS
KANSAS CTY INT CLEAR     65  58  78 S7        29.97R
KANSAS C DTWN  CLEAR     69  59  70 S8        29.96R
LEE`S SUMMIT   CLEAR     66  61  84 S12       29.97F
ST JOSEPH      CLEAR     69  61  75 S8        29.95R
CHILLICOTHE      N/A     66  62  87 CALM      29.98R
KIRKSVILLE     PTCLDY    64  61  90 S5        29.99S

$$
MOZ066>068-077>081-088>096-101>105-310500-
...SOUTHWEST MISSOURI...

CITY           SKY/WX    TMP DP  RH WIND       PRES   REMARKS
SPRINGFIELD    CLOUDY    66  61  84 SE6       29.99R
JOPLIN         CLOUDY    65  63  93 E5        29.98S

$$
MOZ032>034-039>042-045>050-055>058-069>072-310500-
...CENTRAL MISSOURI...

CITY           SKY/WX    TMP DP  RH WIND       PRES   REMARKS
COLUMBIA       CLOUDY    66  62  87 SE3       30.00S
JEFFERSON CITY CLOUDY    68  61  78 E3        29.99S
ROLLA          PTCLDY    64  62  93 SE6       29.99S
SEDALIA        CLOUDY    66  61  84 SW7       29.98F
WHITEMAN AFB   CLOUDY    65  65  99 S3        29.96S
WARRENSBURG    PTCLDY    63  61  94 S6        29.96F

$$
MOZ051-052-059>065-310500-
...EAST CENTRAL MISSOURI...

CITY           SKY/WX    TMP DP  RH WIND       PRES   REMARKS
ST LOUIS INTL  CLOUDY    74  61  63 W8        29.99
SPIRIT OF STL  CLOUDY    69  65  86 CALM      29.98F
ST CHARLES     MOCLDY    74  61  63 W6        29.98R

$$
MOZ072>076-082>087-097>100-106>115-310500-
...SOUTH CENTRAL AND SOUTHEAST MISSOURI...

CITY           SKY/WX    TMP DP  RH WIND       PRES   REMARKS
CAPE GIRARDEAU CLEAR     69  66  90 CALM      29.97S
FARMINGTON     CLOUDY    69  63  81 CALM      30.01S
POPLAR BLUFF   PTCLDY    73  68  84 NW7       29.98R
WEST PLAINS    MOCLDY    65  62  90 CALM      30.02S

$$



USA.gov is the U.S. government's official web portal to all federal, state and local government web resources and services.